This is the latest recevied weather packets stored in our database for station/object N8QF-1. If no packets are shown the sender has not sent any weather packets the latest 1 day(s).
| Time | Temp. | Humidity | Pressure | Rain* | Wind** | Luminosity | Snow |
|---|---|---|---|---|---|---|---|
| 1778002549 | 19.44° C | 60% | 1008.9 hPa | 0 mm | 3.58 m/s, 212° | - | - |
| 1778002249 | 19.44° C | 60% | 1009 hPa | 0 mm | 3.13 m/s, 208° | - | - |
| 1778001948 | 19.44° C | 61% | 1009.1 hPa | 0 mm | 2.68 m/s, 218° | - | - |
| 1778001648 | 19.44° C | 61% | 1009.1 hPa | 0 mm | 3.13 m/s, 215° | - | - |
| 1778001347 | 19.44° C | 61% | 1009.1 hPa | 0 mm | 2.24 m/s, 218° | - | - |
| 1778001047 | 19.44° C | 62% | 1009.1 hPa | 0 mm | 1.79 m/s, 233° | - | - |
| 1778000746 | 19.44° C | 61% | 1009.1 hPa | 0 mm | 4.02 m/s, 226° | - | - |
| 1778000446 | 19.44° C | 61% | 1009.1 hPa | 0 mm | 4.02 m/s, 211° | - | - |
| 1778000145 | 19.44° C | 63% | 1009.2 hPa | 0 mm | 1.79 m/s, 187° | - | - |
| 1777999844 | 19.44° C | 62% | 1009.1 hPa | 0 mm | 3.13 m/s, 232° | - | - |
| 1777999544 | 19.44° C | 62% | 1009.1 hPa | 0 mm | 3.13 m/s, 191° | - | - |
| 1777999242 | 19.44° C | 61% | 1009.1 hPa | 0 mm | 2.68 m/s, 238° | - | - |
| 1777998942 | 18.89° C | 61% | 1009.1 hPa | 0 mm | 1.34 m/s, 217° | - | - |
| 1777998341 | 19.44° C | 61% | 1009.2 hPa | 0 mm | 1.79 m/s, 186° | - | - |
| 1777998040 | 19.44° C | 61% | 1009.2 hPa | 0 mm | 3.13 m/s, 200° | - | - |
| 1777997740 | 19.44° C | 60% | 1009.1 hPa | 0 mm | 4.02 m/s, 218° | - | - |
| 1777997439 | 20° C | 62% | 1009.2 hPa | 0 mm | 2.24 m/s, 221° | - | - |
| 1777996838 | 20° C | 62% | 1009 hPa | 0 mm | 2.68 m/s, 170° | - | - |
| 1777996539 | 19.44° C | 62% | 1009 hPa | 0 mm | 4.47 m/s, 165° | - | - |
| 1777996236 | 19.44° C | 62% | 1009.1 hPa | 0 mm | 4.47 m/s, 205° | - | - |
| 1777995936 | 19.44° C | 63% | 1009 hPa | 0 mm | 4.02 m/s, 201° | - | - |
| 1777995635 | 19.44° C | 65% | 1009 hPa | 0 mm | 4.47 m/s, 239° | - | - |
| 1777995335 | 18.89° C | 64% | 1008.9 hPa | 0 mm | 4.02 m/s, 218° | - | - |
| 1777994734 | 19.44° C | 66% | 1008.9 hPa | 0 mm | 4.47 m/s, 193° | - | - |
| 1777994433 | 18.89° C | 66% | 1009 hPa | 0 mm | 4.02 m/s, 242° | - | - |
* Rain latest hour (hover to see other rain measurements)
** Current wind speed in m/s (hover to see current wind gust speed)